Location: Newark
(9.4667°S, 159.8167°E)
Time: 00:59:06
(UTC+00:00)

Vanguard 1 - Pass Details

Date: 23 November 2019
Orbit: 652 x 3831 km, 34.3° (Epoch: 07 December)

Event Time Altitude Azimuth Distance (km) Brightness Sun altitude
Rises 17:02:31 0° 234° (SW) 7,349 14.3 -24.9°
Reaches altitude 10° 17:07:06 10° 232° (SW) 6,574 14.0 -23.9°
Maximum altitude 17:30:43 81° 144° (SE) 3,771 13.0 -18.7°
Drops below altitude 10° 17:50:25 10° 58° (ENE) 5,675 14.4 -14.3°
Sets 17:53:59 0° 57° (ENE) 6,359 14.7 -13.5°
